#timestamp,LO_Frequency,Hit,StdDev 
1630072815.8,286046995.1,P
1630072835.7,286046995.9,N
1630072855.5,286046996.2,N
1630072875.4,286046997.9,N
1630072895.2,286046997.3,N
1630072915.0,286046997.4,N
1630072915.9,286046997.4,N
1630072935.8,286046995.0,N
1630072955.6,286046996.7,N
1630072975.4,286046995.2,N
1630072995.3,286046997.5,N
1630073015.1,286046995.7,N
1630073035.9,286046995.8,N
1630073055.7,286046993.6,Y
1630073075.5,286046998.7,P
1630073095.4,286046998.8,N
1630073115.2,286047000.8,N
1630073135.0,286047000.5,N
1630073135.9,286047000.5,N
1630073155.8,286047001.2,N
1630073175.6,286046998.2,N
1630073195.5,286046999.4,N
1630073215.3,286046998.8,N
1630073235.1,286046999.2,N
1630073255.9,286046996.6,N
1630073275.7,286046997.4,N
1630073295.5,286046997.3,N
1630073315.4,286046996.9,N
1630073335.2,286046999.4,N
1630073355.0,286046999.1,N
1630073356.0,286046999.1,N
1630073375.8,286046998.7,N
1630073395.6,286046998.8,N
1630073415.5,286046998.5,N
1630073435.3,286046998.3,N
1630073455.1,286047000.7,N
1630073475.9,286047000.8,N
1630073495.7,286046998.6,N
1630073515.5,286046999.0,N
1630073535.4,286046997.1,N
1630073555.2,286046996.8,N
1630073575.1,286046999.2,N
1630073576.0,286046999.2,N
1630073595.8,286046996.7,N
1630073615.6,286046997.1,N
1630073635.5,286046997.3,N
1630073655.3,286046996.2,N
1630073675.1,286046994.1,Y
1630073695.9,286046995.1,P
1630073715.7,286046995.1,N
1630073735.6,286046995.7,N
1630073755.4,286046993.8,Y
1630073775.2,286047000.8,P
1630073795.1,286046999.4,N
1630073796.0,286046999.4,N
1630073815.8,286046998.3,N
1630073835.7,286047000.6,N
1630073855.5,286046998.5,N
1630073875.3,286046998.4,N
1630073895.2,286047000.3,N
1630073915.9,286047001.0,N
1630073935.7,286046999.7,N
1630073955.6,286047001.8,N
1630073975.4,286047003.9,N
1630073995.3,286047004.3,N
1630074015.1,286047004.4,N
1630074016.0,286047004.4,N
1630074035.8,286047003.9,N
1630074055.7,286047003.5,N
1630074075.5,286047004.7,N
1630074095.3,286047005.0,N
1630074115.2,286047005.5,N
1630074135.0,286047005.9,N
1630074135.9,286047005.9,N
1630074155.8,286047005.9,N
1630074175.6,286047005.0,N
1630074195.4,286047007.1,N
1630074215.3,286047009.2,Y
1630074235.1,286047005.6,P
1630074255.8,286047005.3,P
1630074275.7,286047004.6,P
1630074295.5,286047004.8,Y
1630074315.4,286047000.5,P
1630074335.2,286047001.1,N
1630074355.0,286046998.1,N
1630074355.9,286046998.1,N
1630074375.8,286046999.4,N
1630074395.6,286047000.8,N
1630074415.4,286047000.9,N
1630074435.3,286047000.7,N
1630074455.1,286047000.1,N
1630074475.9,286047002.2,N
1630074495.7,286047001.6,N
1630074515.5,286047001.4,N
1630074535.4,286047001.3,N
1630074555.2,286047001.7,N
1630074575.0,286047001.6,N
1630074575.9,286047001.6,N
1630074595.8,286047001.6,N
1630074615.6,286047001.3,N
1630074635.5,286047001.5,N
1630074655.3,286047001.5,N
1630074675.1,286047001.3,N
1630074695.9,286047004.3,Y
1630074715.7,286047001.7,P
1630074735.5,286047001.5,P
1630074755.4,286047000.5,N
1630074775.2,286046998.1,Y
1630074795.1,286047000.8,P
1630074796.0,286047000.8,P
1630074815.8,286046998.6,P
1630074835.7,286046999.3,N
1630074855.5,286046999.4,N
1630074875.3,286046999.6,N
1630074895.2,286046997.1,Y
1630074915.9,286046997.3,P
1630074935.7,286046995.8,P
1630074955.6,286046996.3,N
1630074975.4,286046993.3,Y
1630074995.3,286046996.6,P
1630075015.1,286046999.1,N
1630075016.0,286046999.1,N
1630075035.8,286047000.0,N
1630075055.7,286046998.9,N
1630075075.5,286046998.8,N
1630075095.3,286046997.0,N
1630075115.2,286046996.7,N
1630075135.0,286046999.6,N
1630075135.9,286046999.6,N
1630075155.8,286046999.6,N
1630075175.6,286046999.5,N
1630075195.4,286046997.0,N
1630075215.3,286046998.9,N
1630075235.1,286047000.9,N
1630075255.8,286047000.0,N
1630075275.7,286047000.1,N
1630075295.5,286047002.3,N
1630075315.4,286046999.8,N
1630075335.2,286047004.2,N
1630075355.0,286047004.1,N
1630075355.9,286047004.1,N
1630075375.8,286047003.3,N
1630075395.6,286047003.3,N
1630075415.4,286047003.3,N
1630075435.3,286047001.9,N
1630075455.1,286047001.7,N
1630075475.9,286047003.1,N
1630075495.7,286047003.1,N
1630075515.5,286047005.0,N
1630075535.4,286047007.4,Y
1630075555.2,286047005.1,P
1630075575.0,286047003.7,N
1630075575.9,286047003.7,N
1630075595.8,286047001.4,N
1630075615.6,286047004.2,N
1630075635.5,286047006.0,Y
1630075655.3,286047011.9,P
1630075675.1,286046998.9,N
1630075695.9,286046998.9,N
1630075715.7,286046999.6,N
1630075735.5,286046999.4,N
1630075755.4,286046997.0,N
1630075775.2,286046997.5,N
1630075795.1,286046997.3,N
1630075796.0,286046997.3,N
1630075815.8,286046999.0,N
1630075835.6,286046998.8,N
1630075855.5,286046997.0,N
1630075875.3,286046998.5,N
1630075895.1,286046998.7,N
1630075915.9,286046997.8,N
1630075935.7,286046997.1,N
1630075955.6,286046997.7,N
1630075975.4,286046995.0,N
1630075995.2,286046997.1,N
1630076015.1,286046999.4,N
1630076016.0,286046999.4,N
1630076035.8,286046999.3,N
1630076055.6,286046998.8,N
1630076075.5,286046999.5,N
1630076095.3,286046999.6,N
1630076115.2,286046997.5,N
1630076135.9,286046995.3,N
1630076155.7,286046997.3,N
1630076175.6,286046997.9,N
1630076195.4,286046997.9,N
1630076215.2,286046997.9,N
1630076235.1,286046995.9,Y
1630076236.0,286046995.9,P
1630076255.8,286046994.9,P
1630076275.7,286046997.3,N
1630076295.5,286047001.2,N
1630076315.3,286046999.3,N
1630076335.2,286046998.4,N
1630076355.0,286047000.5,N
1630076355.9,286047000.5,N
1630076375.7,286047000.1,N
1630076395.6,286047000.7,N
